Weather History for Haleyville, AL

Change the Weather History Date:

Monday, March 11, 2013

  Actual Average (KJFX) Record (KJFX)
Temperature  
Mean Temperature 46 °F -  
Max Temperature 56 °F 65 °F 86 °F (1974)
Min Temperature 34 °F 37 °F 17 °F (1969)
Degree Days  
Heating Degree Days 18    
Moisture  
Dew Point 45 °F    
Average Humidity 91    
Maximum Humidity 100    
Minimum Humidity 66    
Precipitation  
Precipitation 0.95 in - - ()
Sea Level Pressure  
Sea Level Pressure 29.91 in    
Wind  
Wind Speed 7 mph (SW)    
Max Wind Speed 14 mph    
Max Gust Speed 24 mph    
Visibility 6 miles    
Events Rain , Thunderstorm    
Averages and records for this station are not official NWS values.
T = Trace of Precipitation, MM = Missing Value Source: NWS Daily Summary

Daily Weather History Graph

Daily Weather History Graph

Search for Another Location

Airport:

Trip Planner

Search our weather history database for the weather conditions in past years. The results will help you decide how hot, cold, wet, or windy it might be!

Date:

Astronomy

Mar. 11, 2013 Rise Set
Actual Time 7:05 AM CDT 6:55 PM CDT
Civil Twilight 6:40 AM CDT 7:20 PM CDT
Nautical Twilight 6:11 AM CDT 7:49 PM CDT
Astronomical Twilight 5:42 AM CDT 8:18 PM CDT
Moon 6:40 AM CDT (3/11) 7:04 PM CDT (3/11)
Length of Visible Light 12h 39m
Length of Day
11h 49m
Waning Crescent, 0% of the Moon is Illuminated
Mar 11
Waning Crescent
Mar 11
New
Mar 19
First Quarter
Mar 27
Full
Apr 2
Last Quarter

Hourly Weather History & Observations

Time (CDT) Temp. Windchill Dew Point Humidity Pressure Visibility Wind Dir Wind Speed Gust Speed Precip Events Conditions
12:10 AM 59.0 °F - 55.4 °F 88% 29.89 in 3.0 mi South 12.7 mph - 0.03 in Rain , Thunderstorm Thunderstorms and Rain
12:19 AM 59.0 °F - 55.4 °F 88% 29.89 in 2.5 mi SSE 13.8 mph 24.2 mph 0.05 in Rain Heavy Rain
12:24 AM 59.0 °F - 55.4 °F 88% 29.90 in 3.0 mi South 13.8 mph 20.7 mph 0.06 in Rain Heavy Rain
12:41 AM 57.2 °F - 53.6 °F 88% 29.89 in 2.5 mi SSE 13.8 mph 20.7 mph 0.09 in Rain Heavy Rain
2:03 AM 55.4 °F - 53.6 °F 94% 29.89 in 2.0 mi Calm Calm - 0.03 in Rain Heavy Rain
2:19 AM 53.6 °F - 53.6 °F 100% 29.89 in 2.5 mi Calm Calm - 0.08 in Rain Heavy Rain
2:34 AM 53.6 °F - 53.6 °F 100% 29.88 in 2.0 mi SW 6.9 mph - 0.15 in Rain Heavy Rain
2:38 AM 53.6 °F - 53.6 °F 100% 29.87 in 3.0 mi SW 3.5 mph - 0.16 in Rain Heavy Rain
2:56 AM 54.0 °F - 54.0 °F 100% 29.91 in 2.0 mi SW 6.9 mph - 0.23 in Rain Heavy Rain
3:18 AM 53.6 °F - 53.6 °F 100% 29.88 in 3.0 mi SSW 9.2 mph - 0.05 in Rain Rain
3:27 AM 53.6 °F - 53.6 °F 100% 29.87 in 4.0 mi South 10.4 mph - 0.06 in Rain Rain
3:40 AM 53.6 °F - 53.6 °F 100% 29.87 in 4.0 mi South 11.5 mph - 0.08 in Rain Rain
3:56 AM 54.0 °F - 54.0 °F 100% 29.91 in 4.0 mi South 12.7 mph - 0.11 in Rain Rain
4:08 AM 53.6 °F - 53.6 °F 100% 29.87 in 2.5 mi South 12.7 mph - 0.02 in Rain Heavy Rain
4:48 AM 53.6 °F - 53.6 °F 100% 29.83 in 2.5 mi South 10.4 mph - 0.10 in Rain Heavy Rain
4:56 AM 52.9 °F - 52.9 °F 100% 29.88 in 4.0 mi South 10.4 mph - 0.11 in Rain Light Rain
5:35 AM 51.8 °F - 51.8 °F 100% 29.86 in 5.0 mi Variable 4.6 mph - 0.01 in Rain Rain
5:43 AM 51.8 °F - 51.8 °F 100% 29.85 in 2.5 mi Calm Calm - 0.02 in Rain Rain
5:56 AM 50.9 °F - 50.9 °F 100% 29.89 in 3.0 mi Calm Calm - 0.03 in Rain Rain
6:04 AM 51.8 °F - 51.8 °F 100% 29.85 in 4.0 mi Calm Calm - 0.00 in Rain Light Rain
6:16 AM 50.0 °F - 50.0 °F 100% 29.87 in 2.0 mi WSW 5.8 mph - 0.02 in Rain Heavy Rain
6:21 AM 50.0 °F - 50.0 °F 100% 29.87 in 1.8 mi WSW 8.1 mph - 0.02 in Rain Heavy Rain
6:32 AM 50.0 °F - 50.0 °F 100% 29.85 in 2.0 mi West 4.6 mph - 0.04 in Rain Heavy Rain
6:37 AM 50.0 °F - 50.0 °F 100% 29.86 in 4.0 mi West 5.8 mph - 0.04 in Rain Light Rain
6:56 AM 50.0 °F - 50.0 °F 100% 29.90 in 4.0 mi Calm Calm - 0.06 in Rain Rain
7:14 AM 50.0 °F - 50.0 °F 100% 29.87 in 2.0 mi Calm Calm - 0.03 in Rain Heavy Rain
7:23 AM 48.2 °F - 48.2 °F 100% 29.89 in 1.8 mi West 9.2 mph - 0.10 in Rain Heavy Rain
7:56 AM 45.0 °F 41.8 °F 45.0 °F 100% 29.93 in 2.0 mi Variable 5.8 mph - 0.21 in Rain Heavy Rain
8:56 AM 43.9 °F 41.3 °F 43.9 °F 100% 29.94 in 3.0 mi Variable 4.6 mph - 0.11 in Rain Heavy Rain
9:18 AM 42.8 °F 37.5 °F 42.8 °F 100% 29.92 in 1.8 mi West 9.2 mph - 0.03 in Rain Heavy Rain
9:31 AM 41.0 °F 35.8 °F 39.2 °F 93% 29.92 in 3.0 mi West 8.1 mph - 0.06 in Rain Rain
9:43 AM 41.0 °F - 39.2 °F 93% 29.93 in 4.0 mi Calm Calm - 0.06 in Rain Rain
9:56 AM 41.0 °F - 39.9 °F 96% 29.94 in 10.0 mi Calm Calm - 0.07 in Rain Light Rain
10:08 AM 42.8 °F - 39.2 °F 87% 29.89 in 10.0 mi Calm Calm - 0.00 in Rain Light Rain
10:44 AM 42.8 °F - 39.2 °F 87% 29.90 in 6.0 mi Calm Calm - 0.01 in Rain Light Rain
10:56 AM 41.9 °F 40.0 °F 39.9 °F 93% 29.95 in 7.0 mi Variable 3.5 mph - 0.01 in Rain Light Rain
11:05 AM 42.8 °F 40.1 °F 41.0 °F 93% 29.90 in 6.0 mi WNW 4.6 mph - 0.00 in Rain Light Rain
11:56 AM 41.9 °F 36.9 °F 41.0 °F 97% 29.99 in 8.0 mi WSW 8.1 mph - 0.01 in   Overcast
12:29 PM 42.8 °F 38.6 °F 39.2 °F 87% 29.93 in 10.0 mi SW 6.9 mph - 0.00 in   Mostly Cloudy
12:56 PM 41.0 °F 35.8 °F 37.9 °F 89% 29.96 in 10.0 mi West 8.1 mph - 0.00 in   Overcast
1:56 PM 41.0 °F 39.0 °F 37.9 °F 89% 29.94 in 10.0 mi Variable 3.5 mph - N/A   Overcast
2:13 PM 41.0 °F 35.8 °F 39.2 °F 93% 29.89 in 10.0 mi WNW 8.1 mph - N/A   Overcast
2:37 PM 42.8 °F 37.5 °F 37.4 °F 81% 29.89 in 10.0 mi WNW 9.2 mph - N/A   Overcast
2:44 PM 42.8 °F 38.6 °F 37.4 °F 81% 29.89 in 10.0 mi Variable 6.9 mph - N/A   Overcast
2:56 PM 41.9 °F 38.2 °F 37.9 °F 86% 29.93 in 10.0 mi Variable 5.8 mph - N/A   Overcast
3:13 PM 42.8 °F 38.0 °F 37.4 °F 81% 29.89 in 10.0 mi WSW 8.1 mph - N/A   Overcast
3:56 PM 43.9 °F 40.5 °F 37.9 °F 80% 29.94 in 10.0 mi Variable 5.8 mph - N/A   Overcast
4:43 PM 46.4 °F 42.9 °F 37.4 °F 71% 29.90 in 10.0 mi West 6.9 mph - N/A   Mostly Cloudy
4:56 PM 46.9 °F - 36.0 °F 66% 29.94 in 10.0 mi Variable 4.6 mph - N/A   Mostly Cloudy
5:19 PM 46.4 °F 45.2 °F 35.6 °F 66% 29.90 in 10.0 mi NNW 3.5 mph - N/A   Mostly Cloudy
5:56 PM 46.9 °F - 36.0 °F 66% 29.95 in 10.0 mi Calm Calm - N/A   Scattered Clouds
6:56 PM 45.0 °F - 36.0 °F 71% 29.97 in 10.0 mi Calm Calm - N/A   Overcast
7:56 PM 41.9 °F 35.9 °F 34.9 °F 76% 30.00 in 10.0 mi North 10.4 mph - N/A   Overcast
8:56 PM 39.9 °F 34.5 °F 32.0 °F 73% 30.03 in 10.0 mi NNW 8.1 mph - N/A   Overcast
9:56 PM 36.9 °F 31.4 °F 30.0 °F 76% 30.05 in 10.0 mi NNW 6.9 mph - N/A   Partly Cloudy
10:56 PM 34.0 °F - 30.0 °F 85% 30.05 in 10.0 mi Calm Calm - N/A   Clear
11:56 PM 34.0 °F - 30.0 °F 85% 30.05 in 10.0 mi Calm Calm - N/A   Clear